Weather History for KACQ - November, 2013

Change the Weather History Date:

Thursday, November 21, 2013

  Actual Average Record
Temperature  
Mean Temperature 30 °F -  
Max Temperature 37 °F 35 °F 71 °F (2012)
Min Temperature 23 °F 18 °F -6 °F (1937)
Degree Days  
Heating Degree Days 34    
Moisture  
Dew Point 28 °F    
Average Humidity 89    
Maximum Humidity 100    
Minimum Humidity 80    
Precipitation  
Precipitation 0.00 in - - ()
Sea Level Pressure  
Sea Level Pressure 30.26 in    
Wind  
Wind Speed 10 mph (NW)    
Max Wind Speed 20 mph    
Max Gust Speed 25 mph    
Visibility 5 miles    
Events Snow    
Averages and records for this station are not official NWS values.
T = Trace of Precipitation, MM = Missing Value Source: NWS Daily Summary

Daily Weather History Graph

Daily Weather History Graph

Search for Another Location

Airport or City:

Trip Planner

Search our weather history database for the weather conditions in past years. The results will help you decide how hot, cold, wet, or windy it might be!

Date:

Astronomy

Nov. 21, 2013 Rise Set
Actual Time 7:17 AM CST 4:42 PM CST
Civil Twilight 6:45 AM CST 5:14 PM CST
Nautical Twilight 6:10 AM CST 5:49 PM CST
Astronomical Twilight 5:35 AM CST 6:24 PM CST
Moon 8:21 PM CST (11/21) 10:23 AM CST (11/21)
Length of Visible Light 10h 28m
Length of Day
9h 25m
Waning Gibbous, 85% of the Moon is Illuminated
Nov 21
Waning Gibbous
Nov 25
Last Quarter
Dec 2
New
Dec 9
First Quarter
Dec 17
Full

Hourly Weather History & Observations

Time (CST) Temp. Windchill Dew Point Humidity Pressure Visibility Wind Dir Wind Speed Gust Speed Precip Events Conditions
12:14 AM 37.4 °F 33.8 °F 35.6 °F 93% 30.04 in 3.0 mi SE 4.6 mph - N/A   Overcast
12:33 AM 37.4 °F - 35.6 °F 93% 30.04 in 3.0 mi Calm Calm - N/A   Overcast
12:54 AM 37.4 °F - 35.6 °F 93% 30.04 in 3.0 mi Calm Calm - N/A   Overcast
1:14 AM 37.4 °F 34.9 °F 35.6 °F 93% 30.05 in 3.0 mi SE 3.5 mph - N/A   Overcast
1:33 AM 37.4 °F - 35.6 °F 93% 30.06 in 3.0 mi Calm Calm - N/A   Overcast
1:54 AM 37.4 °F 34.9 °F 35.6 °F 93% 30.07 in 3.0 mi SSE 3.5 mph - N/A   Overcast
2:14 AM 37.4 °F 34.9 °F 35.6 °F 93% 30.07 in 3.0 mi South 3.5 mph - N/A   Overcast
2:34 AM 37.4 °F - 35.6 °F 93% 30.07 in 3.0 mi Calm Calm - N/A   Overcast
2:53 AM 37.4 °F - 35.6 °F 93% 30.07 in 3.0 mi Calm Calm - N/A   Overcast
3:13 AM 37.4 °F 34.9 °F 35.6 °F 93% 30.08 in 3.0 mi SSW 3.5 mph - N/A   Overcast
3:34 AM 37.4 °F 34.9 °F 35.6 °F 93% 30.08 in 4.0 mi SW 3.5 mph - N/A   Overcast
3:53 AM 37.4 °F 32.8 °F 35.6 °F 93% 30.08 in 4.0 mi SW 5.8 mph - N/A   Overcast
4:14 AM 37.4 °F 29.8 °F 35.6 °F 93% 30.09 in 2.5 mi West 11.5 mph - N/A   Overcast
4:34 AM 35.6 °F 27.1 °F 33.8 °F 93% 30.10 in 3.0 mi West 12.7 mph - N/A   Overcast
4:54 AM 33.8 °F 24.8 °F 32.0 °F 93% 30.11 in 7.0 mi WNW 12.7 mph - N/A   Overcast
5:13 AM 33.8 °F 23.9 °F 32.0 °F 93% 30.11 in 5.0 mi WNW 15.0 mph - N/A   Overcast
5:34 AM 33.8 °F 24.8 °F 32.0 °F 93% 30.13 in 4.0 mi West 12.7 mph 18.4 mph N/A   Overcast
5:54 AM 33.8 °F 23.5 °F 32.0 °F 93% 30.13 in 4.0 mi WNW 16.1 mph - N/A   Overcast
6:13 AM 32.0 °F 21.2 °F 32.0 °F 100% 30.15 in 4.0 mi WNW 16.1 mph 21.9 mph N/A   Overcast
6:33 AM 32.0 °F 21.6 °F 30.2 °F 93% 30.16 in 3.0 mi WNW 15.0 mph - N/A   Overcast
6:54 AM 30.2 °F 19.8 °F 28.4 °F 93% 30.17 in 2.5 mi WNW 13.8 mph - N/A   Overcast
7:14 AM 30.2 °F 19.8 °F 28.4 °F 93% 30.19 in 1.8 mi WNW 13.8 mph 20.7 mph N/A   Overcast
7:33 AM 30.2 °F 19.8 °F 28.4 °F 93% 30.20 in 1.2 mi WNW 13.8 mph - N/A   Overcast
7:53 AM 28.4 °F 16.6 °F 28.4 °F 100% 30.20 in 0.8 mi WNW 16.1 mph - N/A   Overcast
8:14 AM 28.4 °F 17.5 °F 26.6 °F 93% 30.21 in 1.8 mi WNW 13.8 mph 19.6 mph N/A   Overcast
8:33 AM 28.4 °F 18.0 °F 26.6 °F 93% 30.21 in 1.2 mi NW 12.7 mph 17.3 mph N/A   Overcast
8:53 AM 30.2 °F 20.8 °F 28.4 °F 93% 30.22 in 1.5 mi WNW 11.5 mph 21.9 mph N/A   Overcast
9:14 AM 28.4 °F 17.5 °F 26.6 °F 93% 30.22 in 4.0 mi NW 13.8 mph 19.6 mph N/A   Overcast
9:34 AM 30.2 °F 20.8 °F 28.4 °F 93% 30.24 in 4.0 mi NW 11.5 mph - N/A   Overcast
9:54 AM 30.2 °F 19.3 °F 28.4 °F 93% 30.25 in 5.0 mi NW 15.0 mph - N/A   Overcast
10:14 AM 30.2 °F 20.2 °F 28.4 °F 93% 30.26 in 5.0 mi NW 12.7 mph - N/A   Overcast
10:34 AM 30.2 °F 20.2 °F 28.4 °F 93% 30.26 in 5.0 mi NW 12.7 mph - N/A   Overcast
10:54 AM 30.2 °F 20.8 °F 28.4 °F 93% 30.27 in 7.0 mi NW 11.5 mph - N/A   Overcast
11:14 AM 30.2 °F 18.5 °F 28.4 °F 93% 30.28 in 7.0 mi NW 17.3 mph - N/A   Overcast
11:34 AM 30.2 °F 19.8 °F 28.4 °F 93% 30.28 in 7.0 mi NW 13.8 mph - N/A   Overcast
11:53 AM 30.2 °F 18.5 °F 28.4 °F 93% 30.28 in 7.0 mi NW 17.3 mph 24.2 mph N/A   Overcast
12:14 PM 28.4 °F 16.2 °F 26.6 °F 93% 30.27 in 10.0 mi NW 17.3 mph - N/A   Overcast
12:33 PM 28.4 °F 17.0 °F 26.6 °F 93% 30.28 in 10.0 mi NNW 15.0 mph 21.9 mph N/A   Overcast
12:54 PM 28.4 °F 16.2 °F 26.6 °F 93% 30.27 in 10.0 mi NNW 17.3 mph - N/A   Overcast
1:13 PM 30.2 °F 18.9 °F 26.6 °F 86% 30.28 in 10.0 mi NNW 16.1 mph 20.7 mph N/A   Overcast
1:34 PM 30.2 °F 18.5 °F 26.6 °F 86% 30.28 in 10.0 mi NNW 17.3 mph - N/A   Overcast
1:54 PM 30.2 °F 19.8 °F 24.8 °F 80% 30.28 in 10.0 mi NNW 13.8 mph 20.7 mph N/A   Overcast
2:13 PM 30.2 °F 18.1 °F 24.8 °F 80% 30.28 in 10.0 mi NNW 18.4 mph - N/A   Overcast
2:34 PM 30.2 °F 18.9 °F 24.8 °F 80% 30.29 in 4.0 mi NNW 16.1 mph - N/A   Haze
2:53 PM 30.2 °F 18.9 °F 26.6 °F 86% 30.29 in 3.0 mi NNW 16.1 mph - N/A   Overcast
3:14 PM 30.2 °F 18.9 °F 26.6 °F 86% 30.30 in 3.0 mi NNW 16.1 mph - N/A   Overcast
3:33 PM 30.2 °F 18.1 °F 26.6 °F 86% 30.31 in 5.0 mi NNW 18.4 mph - N/A   Overcast
3:54 PM 30.2 °F 18.5 °F 26.6 °F 86% 30.32 in 3.0 mi NNW 17.3 mph 21.9 mph N/A Snow Light Snow
4:14 PM 30.2 °F 18.5 °F 26.6 °F 86% 30.34 in 3.0 mi NNW 17.3 mph - N/A Snow Light Snow
4:33 PM 30.2 °F 17.8 °F 26.6 °F 86% 30.34 in 10.0 mi NNW 19.6 mph - N/A   Overcast
4:54 PM 28.4 °F 15.8 °F 24.8 °F 86% 30.35 in 10.0 mi NNW 18.4 mph 24.2 mph N/A   Overcast
5:13 PM 28.4 °F 16.2 °F 24.8 °F 86% 30.36 in 10.0 mi NNW 17.3 mph 23.0 mph N/A   Overcast
5:34 PM 28.4 °F 16.2 °F 24.8 °F 86% 30.37 in 10.0 mi NNW 17.3 mph - N/A   Overcast
5:54 PM 28.4 °F 17.5 °F 24.8 °F 86% 30.38 in 10.0 mi NNW 13.8 mph - N/A   Overcast
6:13 PM 28.4 °F 15.8 °F 24.8 °F 86% 30.38 in 10.0 mi NNW 18.4 mph 24.2 mph N/A   Overcast
6:34 PM 28.4 °F 15.8 °F 23.0 °F 80% 30.39 in 10.0 mi NNW 18.4 mph - N/A   Overcast
6:54 PM 28.4 °F 17.0 °F 23.0 °F 80% 30.39 in 10.0 mi NNW 15.0 mph - N/A   Overcast
7:14 PM 28.4 °F 16.6 °F 23.0 °F 80% 30.40 in 10.0 mi NNW 16.1 mph - N/A   Overcast
7:33 PM 28.4 °F 16.6 °F 23.0 °F 80% 30.41 in 5.0 mi NNW 16.1 mph 20.7 mph N/A Snow Light Snow
7:54 PM 28.4 °F 17.0 °F 23.0 °F 80% 30.42 in 2.0 mi NNW 15.0 mph - N/A Snow Light Snow
8:14 PM 26.6 °F 14.3 °F 23.0 °F 86% 30.42 in 2.5 mi NNW 16.1 mph - N/A Snow Light Snow
8:34 PM 26.6 °F 13.8 °F 23.0 °F 86% 30.43 in 3.0 mi NNW 17.3 mph 20.7 mph N/A Snow Light Snow
8:53 PM 26.6 °F 14.3 °F 23.0 °F 86% 30.43 in 5.0 mi NNW 16.1 mph 23.0 mph N/A Snow Light Snow
9:14 PM 26.6 °F 13.4 °F 23.0 °F 86% 30.44 in 2.5 mi NNW 18.4 mph - N/A Snow Light Snow
9:34 PM 26.6 °F 15.2 °F 23.0 °F 86% 30.44 in 3.0 mi NNW 13.8 mph - N/A Snow Light Snow
9:54 PM 26.6 °F 13.4 °F 23.0 °F 86% 30.45 in 5.0 mi NNW 18.4 mph - N/A Snow Light Snow
10:13 PM 26.6 °F 13.8 °F 21.2 °F 80% 30.45 in 3.0 mi NNW 17.3 mph 24.2 mph N/A Snow Light Snow
10:33 PM 26.6 °F 13.1 °F 21.2 °F 80% 30.47 in 2.5 mi NNW 19.6 mph - N/A Snow Light Snow
10:54 PM 26.6 °F 13.1 °F 23.0 °F 86% 30.48 in 1.8 mi NNW 19.6 mph 25.3 mph N/A Snow Light Snow
11:13 PM 24.8 °F 11.5 °F 21.2 °F 86% 30.48 in 1.8 mi NNW 17.3 mph 24.2 mph N/A Snow Light Snow
11:33 PM 24.8 °F 11.1 °F 21.2 °F 86% 30.50 in 2.5 mi NNW 18.4 mph - N/A Snow Light Snow
11:54 PM 23.0 °F 9.2 °F 21.2 °F 93% 30.50 in 2.0 mi NNW 17.3 mph - N/A Snow Light Snow